Location: Azenweiler
(47.8027°N, 9.4096°E)
Time: 15:33:34
(UTC+00:00)

Cosmos 2333 Rocket - Pass Details

Date: 10 December 2025
Orbit: 838 x 865 km, 70.8° (Epoch: 19 January)

Event Time Altitude Azimuth Distance (km) Brightness Sun altitude
Exits shadow 04:10:58 30° 358° (N) 1,523 3.4 -27.4°
Maximum altitude 04:13:33 49° 55° (NE) 1,106 3.0 -26.9°
Drops below altitude 10° 04:19:06 10° 130° (SE) 2,492 5.3 -26.0°
Sets 04:21:38 0° 136° (SE) 3,422 6.1 -25.6°
